Regional Weather Roundup
Issued by NWS Upton, NY

Current Version | Previous Version | Graphics & Text | Print | Product List | Glossary Off
Versions: 1 2 3 4 5 6 7 8 9 10 11 12 13 14 15 16 17 18 19 20 21 22 23 24 25 26 27 28 29 30 31 32 33 34 35 36 37 38 39 40 41 42 43 44 45 46 47 48 49 50

000
ASUS41 KOKX 290905
RWROKX
REGIONAL WEATHER ROUNDUP
NATIONAL WEATHER SERVICE NEW YORK NY
500 AM EDT TUE JUL 29 2014

NOTE: "FAIR" INDICATES FEW OR NO CLOUDS BELOW 12,000 FEET WITH NO
SIGNIFICANT WEATHER AND/OR OBSTRUCTIONS TO VISIBILITY.

NYZ071-072-176-178-NJZ106-104-291000-
NEW YORK CITY METRO AREA


CITY           SKY/WX    TMP DP  RH WIND       PRES   REMARKS
CENTRAL PARK   CLEAR     65  52  62 NW9       29.81R
LAGUARDIA APRT PTCLDY    65  54  67 NW13      29.77R
KENNEDY INTL   PTCLDY    66  53  63 NW14      29.78R
NEWARK/LIBERTY PTCLDY    65  53  65 NW9G17    29.78R
BRNX BOT. GARD   N/A     63  54  72 W15       29.79R
TETERBORO      CLEAR     65  53  65 NW7       29.78R
$$

NYZ177-179-078>081-291000-
LONG ISLAND NEW YORK

CITY           SKY/WX    TMP DP  RH WIND       PRES   REMARKS
FARMINGDALE    CLEAR     63  55  75 NW3       29.77R
ISLIP          CLEAR     65  56  72 CALM      29.75R
SHIRLEY        PTCLDY    63  56  78 CALM      29.77R
WESTHAMPTON    MOCLDY    64  57  78 W6        29.77R
MONTAUK POINT    N/A     67  58  72 W8        29.75R
$$

NYZ052-065-067-291000-
HUDSON VALLEY

CITY           SKY/WX    TMP DP  RH WIND       PRES   REMARKS
WHITE PLAINS   PTCLDY    62  54  74 NW8       29.77R
NEWBURGH       NOT AVBL
MONTGOMERY     PTCLDY    59  53  80 W7        29.78R
POUGHKEEPSIE   PTCLDY    64  53  67 CALM      29.76R
ALBANY         CLOUDY    60  54  80 W9        29.76R
$$

NJZ001-105-106-008-010-013-015-019>022-104-291000-
NEW JERSEY

CITY           SKY/WX    TMP DP  RH WIND       PRES   REMARKS
NEWARK/LIBERTY PTCLDY    65  53  65 NW9G17    29.78R
TETERBORO      CLEAR     65  53  65 NW7       29.78R
CALDWELL       CLEAR     63  52  67 NW6       29.80R
MORRISTOWN     CLEAR     63  54  72 CALM      29.81R
SOMERVILLE     CLEAR     58  54  86 CALM      29.79R
LINDEN         FAIR      64  55  70 NW7       29.81R
SUSSEX         PTCLDY    59  54  83 CALM      29.81R
ANDOVER          N/A     56  54  93 CALM      29.83R
TRENTON        CLEAR     61  54  77 MISG      29.82R
MILLVILLE      CLEAR     61  56  83 NW5       29.83R
ATLANTIC CITY  CLEAR     62  56  80 W5        29.82R
WRIGHTSTOWN    CLEAR     61  56  82 W6        29.80R
TOMS RIVER     CLEAR     63  55  77 NW5       29.81R
BELMAR         CLEAR     63  54  72 NW7       29.80R
$$

PAZ047>061-062-071-291000-
EASTERN PENNSYLVANIA

CITY           SKY/WX    TMP DP  RH WIND       PRES   REMARKS
PHILADELPHIA   CLEAR     66  55  67 NW10      29.84R
ALLENTOWN      CLEAR     59  53  80 CALM      29.83R
SCRANTON       CLOUDY    59  54  83 W5        29.84R
$$

CTZ002-004>006-009-010-012-RIZ004-006-007-MAZ004-011-015-291000-
SOUTHERN NEW ENGLAND
 IN CT

CITY           SKY/WX    TMP DP  RH WIND       PRES   REMARKS
BRADLEY INTL   CLOUDY    64  55  72 W8        29.73R
HARTFORD       CLOUDY    65  55  70 NW7       29.74R
DANBURY        PTCLDY    61  53  75 W5        29.78R
WTRBRY/OXFORD  PTCLDY    61  52  72 NW7       29.78R
BRIDGEPORT     CLEAR     64  58  80 CALM      29.76R
MERIDEN        MOCLDY    63  55  75 NW6       29.75R
NEW HAVEN      CLEAR     67  54  63 NW6       29.75R
CHESTER        CLOUDY    63  55  77 CALM      29.75R
GROTON         PTCLDY    63  58  83 W5        29.72R
WILLIMANTIC    CLOUDY    63  57  81 CALM      29.73R

 IN RI

CITY           SKY/WX    TMP DP  RH WIND       PRES   REMARKS
PROVIDENCE     CLEAR     63  59  87 W8        29.71R
BLOCK ISLAND   CLEAR     64  57  77 W12       29.73R
WESTERLY       CLEAR     64  58  80 W5        29.73R

 IN MA

CITY           SKY/WX    TMP DP  RH WIND       PRES   REMARKS
BOSTON         PTCLDY    65  57  75 W10       29.67R
WORCESTER      MOCLDY    59  57  93 W8        29.72R
WESTFIELD      CLOUDY    64  54  69 NW6       29.72R
PROVINCETOWN   CLEAR     64  61  88 W12       29.67R
NANTUCKET      CLEAR     67  63  87 W14       29.70R
$$

ANZ330-335-338-340-345-350-353-355-291000-
COASTAL MARINE OBSERVATIONS


STATION/POSITION TIME  SKY/WX   TEMP    WIND        PRES    VSBY  WAVE
                                AIR SEA DIR/SP/G                  HT/PER
                 (UTC)          (F)     (DEG/KT/KT) (MB)    (MI)  (FT/S)
NY HARB ENTRANCE NOT AVBL
4S FIRE IS       NOT AVBL
23SW MTP         0900            67 69              1006.8          5/ 7
HUDSON CANYON    0900            70 74  310/ 14/ 16 1007.9          6/ 6
EXECUTION ROCKS  0900            66 70  310/  8/ 12   N/A
WESTERN LI SOUND 0900            66     310/  8/ 12   N/A           0
CENTRAL LI SOUND 0800            67 71  300/ 16/ 19   N/A           2/ 3
EASTERN LI SOUND 0800            66 67  280/ 12/ 14   N/A
ROBBINS REEF     0900            65     320/ 12/ 18   N/A
$$


>>>>>>>>>>>>>>>>>>>>>>>>>>>> KEY <<<<<<<<<<<<<<<<<<<<<<<<<<<
>                                                          <
>     SKY/WX - SKY CONDITION/PRESENT WEATHER               <
>     TMP    - TEMPERATURE IN FAHRENHEIT                   <
>     DP     - DEWPOINT IN FAHRENHEIT                      <
>     RH     - RELATIVE HUMIDITY IN PERCENT                <
>     WIND   - DIRECTION AND SPEED IN MPH                  <
>     PRES   - MEAN SEA LEVEL PRESSURE IN INCHES OF HG     <
>     WCI    - WIND CHILL INDEX                            <
>     VSB    - VISIBILITY IN MILES                         <
>     HX     - HEAT INDEX                                  <
>     TC     - TEMPERATURE IN CELSIUS                      <
>     VRB    - VARIABLE WIND DIRECTION                     <
>                                                          <
>>>>>>>>>>>>>>>>>>>>>>>>>>>> KEY <<<<<<<<<<<<<<<<<<<<<<<<<<<




USA.gov is the U.S. government's official web portal to all federal, state and local government web resources and services.